x

Aberdaron (03405) Weather Station

7:00am - Mon 23rd Oct 2017 All times are BST. 1 hours from GMT.

  • Wind
    24mph, 32mph gusts
  • Air Temp 54°f
  • Sea Pressure 1012mb
  • Aberdaron
  • Aberdaron

More Historic Weather Station data

Upgrade to MSW Pro to gain access to the past 30 days of data for over 8000 Wavebouys and Weather Stations around the globe.

Join

Comparision Forecast

View Surf forecast
   
Mon 10/23 7:00am 24 32 mph 1012mb 54f
6:00am 25 34 mph 1013mb 54f
5:00am 25 33 mph 1013mb 54f
4:00am 25 33 mph 1014mb 54f
3:00am 24 34 mph 1015mb 54f
2:00am 26 32 mph 1015mb 54f
1:00am 25 32 mph 1016mb 54f
12:00am 24 31 mph 1016mb 54f
Sun 10/22 11:00pm 19
mph
1017mb 54f
10:00pm 19 31 mph 1017mb 52f
9:00pm 21 31 mph 1017mb 52f
8:00pm 25 36 mph 1017mb 52f
7:00pm 28 34 mph 1017mb 52f
6:00pm 23 30 mph 1016mb 52f
5:00pm 23 33 mph 1016mb 52f
4:00pm 24 34 mph 1016mb 52f
3:00pm 24 34 mph 1016mb 54f
2:00pm 25 37 mph 1016mb 52f
1:00pm 28 39 mph 1015mb 50f
12:00pm 30 38 mph 1015mb 50f
11:00am 29 38 mph 1014mb 50f
10:00am 31 48 mph 1014mb 50f
9:00am 37 51 mph 1013mb 48f
8:00am 36 49 mph 1012mb 46f
7:00am 38 54 mph 1011mb 48f
6:00am 40 56 mph 1011mb 48f
5:00am 40 57 mph 1009mb 48f
4:00am 40 57 mph 1008mb 48f
3:00am 40 53 mph 1007mb 48f
2:00am 34 54 mph 1007mb 50f
1:00am 38 55 mph 1006mb 50f
12:00am 45 55 mph 1005mb 50f
Sat 10/21 11:00pm 40 60 mph 1004mb 50f
10:00pm 43 57 mph 1002mb 52f
9:00pm 39 54 mph 1000mb 52f
8:00pm 34 52 mph 999mb 52f
7:00pm 37 52 mph 997mb 54f
6:00pm 36 53 mph 995mb 54f
5:00pm 33 49 mph 994mb 55f
4:00pm 36 54 mph 992mb 55f
3:00pm 44 63 mph 990mb 55f
2:00pm 47 78 mph 987mb 54f
1:00pm 59 74 mph 985mb 54f
12:00pm 55 70 mph 985mb 52f
11:00am 52 66 mph 986mb 52f
10:00am 47 62 mph 987mb 52f
9:00am 45 60 mph 988mb 52f
8:00am 41 59 mph 988mb 54f
7:00am 44 59 mph 988mb 54f
6:00am 44 56 mph 989mb 52f
5:00am 39 55 mph 990mb 52f
4:00am 39 51 mph 991mb 54f
3:00am 34 53 mph 993mb 55f
2:00am 36 47 mph 994mb 55f
1:00am 29 43 mph 994mb 55f
12:00am 31 41 mph 995mb 55f
Fri 10/20 11:00pm 29 48 mph 995mb 55f
10:00pm 32 49 mph - 54f
9:00pm 34 48 mph 997mb 54f
8:00pm 37 48 mph 998mb 54f
7:00pm 30 41 mph 999mb 54f
6:00pm 23 34 mph 1001mb 54f
5:00pm 24 33 mph 1003mb 52f
4:00pm 24 32 mph 1003mb 52f
3:00pm 21 29 mph 1005mb 50f
2:00pm 24 29 mph 1005mb 50f
1:00pm 17
mph
1006mb 50f
12:00pm 14
mph
1005mb 50f
11:00am 14
mph
1005mb 50f
10:00am 19 30 mph 1005mb 50f
9:00am 21 34 mph 1004mb 50f
8:00am 24 36 mph 1002mb 50f
7:00am 26 41 mph 1001mb 50f
6:00am 31 49 mph 1000mb 50f
5:00am 34 46 mph 998mb 52f
4:00am 30 39 mph 996mb 52f
3:00am 17
mph
995mb 54f
2:00am 17
mph
994mb 54f
1:00am 5
mph
994mb 52f
12:00am 5
mph
993mb 54f
Thu 10/19 11:00pm 7
mph
992mb 54f
10:00pm 9
mph
992mb 54f
9:00pm 17 34 mph 992mb 55f
8:00pm 21 33 mph 992mb 55f
7:00pm 18 31 mph 992mb 55f
6:00pm 17 31 mph 993mb 55f
5:00pm 17 29 mph 994mb 55f
4:00pm 17 30 mph 995mb 55f
3:00pm 18 29 mph 996mb 55f
2:00pm 18 31 mph 997mb 55f
1:00pm 16 32 mph 999mb 55f
12:00pm 19 36 mph 1000mb 55f
11:00am 18 32 mph 1001mb 55f
10:00am 25 34 mph 1001mb 55f
9:00am 23 33 mph 1002mb 55f
8:00am 23 33 mph 1002mb 55f